Regional Weather Roundup
Issued by NWS

Home | Current Version | Previous Version | Text Only | Print | Product List | Glossary Off
Versions: 1 2 3 4 5 6 7 8 9 10 11 12 13 14 15 16 17 18 19 20 21 22 23 24 25 26 27 28 29 30 31 32 33 34 35 36 37 38 39 40 41 42 43 44 45 46 47 48 49 50

283
ASUS43 KLMK 062202
RWRKY
KENTUCKY REGIONAL WEATHER ROUNDUP
NATIONAL WEATHER SERVICE LOUISVILLE KY
500 PM EST SAT FEB 06 2016

NOTE "FAIR" INDICATES FEW OR NO CLOUDS BELOW 12,000 FEET
WITH NO SIGNIFICANT WEATHER AND/OR OBSTRUCTIONS TO VISIBILITY.

KYZ001>023-026-027-061>063-070>075-062300-
WESTERN AND SOUTH CENTRAL KENTUCKY

CITY           SKY/WX    TMP DP  RH WIND       PRES   REMARKS
PADUCAH        SUNNY     53  21  28 SW8       30.26S
HENDERSON      SUNNY     54  25  32 SW7       30.25S
OWENSBORO      SUNNY     53  26  35 W6        30.26F
HOPKINSVILLE   SUNNY     52  19  26 W8        30.27F
BOWLING GREEN  MOSUNNY   52  21  29 SW10      30.28S
GLASGOW        NOT AVBL
$$

KYZ024-025-028>034-038-045-046-053-062300-
NORTH CENTRAL KENTUCKY

CITY           SKY/WX    TMP DP  RH WIND       PRES   REMARKS
LOUISVILLE/SDF MOSUNNY   51  23  33 W3        30.25S
LOUISVILLE/LOU SUNNY     51  24  34 W7        30.26S
FORT KNOX      SUNNY     51  23  34 W9        30.24S
$$

KYZ035>037-039>044-047>052-055>060-089>105-062300-
NORTHEAST KENTUCKY

CITY           SKY/WX    TMP DP  RH WIND       PRES   REMARKS
LEXINGTON      SUNNY     49  23  36 W9        30.25S
COVINGTON      MOSUNNY   46  23  40 W10       30.24
FRANKFORT      SUNNY     49  22  34 W7        30.25S
$$

KYZ054-064>069-076>088-106>120-062300-
SOUTHEAST KENTUCKY

CITY           SKY/WX    TMP DP  RH WIND       PRES   REMARKS
JACKSON        CLOUDY    47  20  34 VRB5      30.25S
LONDON         CLOUDY    46  20  35 W6        30.27S
SOMERSET       NOT AVBL
MIDDLESBORO    NOT AVBL
MONTICELLO     PTCLDY    47  22  37 NE7       30.30S
$$





USA.gov is the U.S. government's official web portal to all federal, state and local government web resources and services.